| time (UTC) | temp F | wind direction | speed MPH | gust MPH | rain 1hr in | rain 24hr in | rain mn in | humidity % | barometer mb |
| 20260503021806 | 65 | 248 | 5.0 | 9.0 | 0.00 | 0.00 | 0.00 | 26 | 1021.4 |
| 20260503021306 | 66 | 240 | 5.0 | 9.0 | 0.00 | 0.00 | 0.00 | 26 | 1021.4 |
| 20260503020803 | 66 | 234 | 5.0 | 10.0 | 0.00 | 0.00 | 0.00 | 26 | 1021.4 |
| 20260503020309 | 67 | 245 | 4.0 | 9.0 | 0.00 | 0.00 | 0.00 | 26 | 1021.4 |
| 20260503020305 | 66 | 237 | 5.0 | 10.0 | 0.00 | 0.00 | 0.00 | 26 | 1021.4 |
| 20260503015301 | 67 | 214 | 3.0 | 6.0 | 0.00 | 0.00 | 0.00 | 25 | 1021.3 |
| 20260503014802 | 67 | 214 | 3.0 | 6.0 | 0.00 | 0.00 | 0.00 | 25 | 1021.3 |
| 20260503014532 | 67 | 214 | 4.0 | 9.0 | 0.00 | 0.00 | 0.00 | 25 | 1021.2 |
| 20260503013800 | 68 | 212 | 4.0 | 9.0 | 0.00 | 0.00 | 0.00 | 25 | 1021.2 |
| 20260503013300 | 68 | 250 | 3.0 | 7.0 | 0.00 | 0.00 | 0.00 | 24 | 1021.1 |
| 20260503012758 | 68 | 254 | 3.0 | 7.0 | 0.00 | 0.00 | 0.00 | 23 | 1021.1 |
| 20260503012529 | 68 | 237 | 4.0 | 8.0 | 0.00 | 0.00 | 0.00 | 24 | 1021.1 |
| 20260503011758 | 69 | 219 | 5.0 | 8.0 | 0.00 | 0.00 | 0.00 | 23 | 1021.1 |
| 20260503011258 | 69 | 204 | 6.0 | 9.0 | 0.00 | 0.00 | 0.00 | 23 | 1021.1 |
| 20260503010758 | 69 | 198 | 5.0 | 9.0 | 0.00 | 0.00 | 0.00 | 23 | 1021.1 |
| 20260503010259 | 69 | 196 | 4.0 | 8.0 | 0.00 | 0.00 | 0.00 | 23 | 1021.1 |
| 20260503010028 | 70 | 198 | 3.0 | 7.0 | 0.00 | 0.00 | 0.00 | 22 | 1021.0 |
| 20260503005258 | 71 | 256 | 2.0 | 7.0 | 0.00 | 0.00 | 0.00 | 21 | 1021.1 |
| 20260503004759 | 71 | 183 | 1.0 | 4.0 | 0.00 | 0.00 | 0.00 | 21 | 1021.1 |
| 20260503004256 | 71 | 239 | 0.0 | 2.0 | 0.00 | 0.00 | 0.00 | 21 | 1021.1 |
| 20260503003757 | 71 | 282 | 1.0 | 5.0 | 0.00 | 0.00 | 0.00 | 22 | 1021.1 |
| 20260503003256 | 70 | 281 | 2.0 | 5.0 | 0.00 | 0.00 | 0.00 | 22 | 1021.1 |
| 20260503002756 | 69 | 257 | 2.0 | 5.0 | 0.00 | 0.00 | 0.00 | 23 | 1021.1 |
| 20260503002256 | 69 | 291 | 2.0 | 5.0 | 0.00 | 0.00 | 0.00 | 23 | 1021.1 |
| 20260503001755 | 69 | 269 | 2.0 | 6.0 | 0.00 | 0.00 | 0.00 | 22 | 1021.1 |
| 20260503001252 | 70 | 273 | 3.0 | 6.0 | 0.00 | 0.00 | 0.00 | 22 | 1021.1 |
| 20260503000750 | 71 | 273 | 3.0 | 7.0 | 0.00 | 0.00 | 0.00 | 21 | 1021.2 |
| 20260503000249 | 71 | 243 | 2.0 | 7.0 | 0.00 | 0.00 | 0.00 | 21 | 1021.2 |
| 20260502235748 | 71 | 259 | 3.0 | 8.0 | 0.00 | 0.00 | 0.00 | 21 | 1021.2 |
| 20260502235245 | 71 | 176 | 4.0 | 9.0 | 0.00 | 0.00 | 0.00 | 22 | 1021.4 |
| 20260502234746 | 70 | 269 | 6.0 | 11.0 | 0.00 | 0.00 | 0.00 | 22 | 1021.4 |
| 20260502234517 | 70 | 217 | 6.0 | 11.0 | 0.00 | 0.00 | 0.00 | 22 | 1021.4 |
| 20260502233746 | 70 | 231 | 6.0 | 10.0 | 0.00 | 0.00 | 0.00 | 22 | 1021.4 |
| 20260502233246 | 71 | 257 | 4.0 | 9.0 | 0.00 | 0.00 | 0.00 | 22 | 1021.4 |
| 20260502232744 | 73 | 242 | 3.0 | 8.0 | 0.00 | 0.00 | 0.00 | 21 | 1021.4 |
| 20260502232242 | 73 | 254 | 2.0 | 8.0 | 0.00 | 0.00 | 0.00 | 20 | 1021.5 |
| 20260502231740 | 73 | 190 | 2.0 | 7.0 | 0.00 | 0.00 | 0.00 | 20 | 1021.5 |
| 20260502231238 | 73 | 270 | 1.0 | 5.0 | 0.00 | 0.00 | 0.00 | 20 | 1021.5 |
| 20260502231006 | 72 | 267 | 1.0 | 5.0 | 0.00 | 0.00 | 0.00 | 21 | 1021.5 |
| 20260502230501 | 72 | 145 | 1.0 | 5.0 | 0.00 | 0.00 | 0.00 | 21 | 1021.7 |
| 20260502225729 | 71 | 334 | 2.0 | 6.0 | 0.00 | 0.00 | 0.00 | 22 | 1021.7 |
| 20260502225156 | 70 | 277 | 4.0 | 11.0 | 0.00 | 0.00 | 0.00 | 22 | 1021.8 |
| 20260502224658 | 69 | 234 | 5.0 | 11.0 | 0.00 | 0.00 | 0.00 | 22 | 1021.8 |
| 20260502224141 | 70 | 217 | 5.0 | 10.0 | 0.00 | 0.00 | 0.00 | 22 | 1021.8 |
| 20260502223639 | 71 | 136 | 4.0 | 9.0 | 0.00 | 0.00 | 0.00 | 21 | 1021.9 |
| 20260502223409 | 71 | 202 | 3.0 | 9.0 | 0.00 | 0.00 | 0.00 | 21 | 1021.9 |
| 20260502223245 | 72 | 36 | 3.0 | 9.0 | 0.00 | 0.00 | 0.00 | 21 | 1022.0 |
| 20260502222410 | 71 | 246 | 5.0 | 9.0 | 0.00 | 0.00 | 0.00 | 21 | 1022.0 |
| 20260502221638 | 71 | 207 | 6.0 | 10.0 | 0.00 | 0.00 | 0.00 | 21 | 1022.1 |
| 20260502221140 | 72 | 229 | 5.0 | 13.0 | 0.00 | 0.00 | 0.00 | 21 | 1022.3 |
| 20260502221136 | 71 | 214 | 5.0 | 12.0 | 0.00 | 0.00 | 0.00 | 21 | 1022.2 |
| 20260502220406 | 72 | 233 | 4.0 | 15.0 | 0.00 | 0.00 | 0.00 | 21 | 1022.4 |
| 20260502215634 | 72 | 193 | 2.0 | 15.0 | 0.00 | 0.00 | 0.00 | 22 | 1022.3 |
| 20260502215134 | 72 | 221 | 1.0 | 5.0 | 0.00 | 0.00 | 0.00 | 22 | 1022.5 |
| 20260502214904 | 70 | 133 | 2.0 | 7.0 | 0.00 | 0.00 | 0.00 | 23 | 1022.6 |
| 20260502214133 | 69 | 176 | 3.0 | 7.0 | 0.00 | 0.00 | 0.00 | 24 | 1022.7 |
| 20260502213905 | 70 | 316 | 4.0 | 10.0 | 0.00 | 0.00 | 0.00 | 22 | 1022.9 |
| 20260502213134 | 71 | 248 | 4.0 | 10.0 | 0.00 | 0.00 | 0.00 | 21 | 1022.9 |
| 20260502212904 | 71 | 219 | 5.0 | 12.0 | 0.00 | 0.00 | 0.00 | 22 | 1023.0 |
| 20260502212133 | 71 | 240 | 5.0 | 15.0 | 0.00 | 0.00 | 0.00 | 21 | 1023.1 |
| 20260502211901 | 71 | 191 | 5.0 | 15.0 | 0.00 | 0.00 | 0.00 | 22 | 1023.2 |
| 20260502211129 | 71 | 149 | 5.0 | 11.0 | 0.00 | 0.00 | 0.00 | 22 | 1023.3 |
| 20260502210630 | 71 | 254 | 5.0 | 11.0 | 0.00 | 0.00 | 0.00 | 21 | 1023.4 |
| 20260502210130 | 71 | 242 | 4.0 | 10.0 | 0.00 | 0.00 | 0.00 | 22 | 1023.5 |
| 20260502205851 | 71 | 131 | 4.0 | 10.0 | 0.00 | 0.00 | 0.00 | 22 | 1023.5 |
| 20260502205118 | 71 | 103 | 3.0 | 8.0 | 0.00 | 0.00 | 0.00 | 22 | 1023.7 |
| 20260502204622 | 70 | 257 | 3.0 | 8.0 | 0.00 | 0.00 | 0.00 | 22 | 1023.7 |
| 20260502204617 | 70 | 327 | 3.0 | 8.0 | 0.00 | 0.00 | 0.00 | 22 | 1023.9 |
| 20260502203615 | 71 | 345 | 2.0 | 8.0 | 0.00 | 0.00 | 0.00 | 22 | 1023.9 |
| 20260502203117 | 70 | 280 | 2.0 | 8.0 | 0.00 | 0.00 | 0.00 | 23 | 1023.9 |
| 20260502202613 | 70 | 81 | 3.0 | 7.0 | 0.00 | 0.00 | 0.00 | 22 | 1024.0 |
| 20260502202112 | 70 | 216 | 5.0 | 11.0 | 0.00 | 0.00 | 0.00 | 22 | 1024.3 |
| 20260502201608 | 70 | 236 | 4.0 | 11.0 | 0.00 | 0.00 | 0.00 | 22 | 1024.3 |
| 20260502201107 | 71 | 259 | 4.0 | 12.0 | 0.00 | 0.00 | 0.00 | 22 | 1024.2 |
| 20260502200603 | 70 | 245 | 4.0 | 12.0 | 0.00 | 0.00 | 0.00 | 22 | 1024.3 |
| 20260502200332 | 71 | 194 | 4.0 | 10.0 | 0.00 | 0.00 | 0.00 | 22 | 1024.4 |
| 20260502195601 | 70 | 246 | 4.0 | 10.0 | 0.00 | 0.00 | 0.00 | 21 | 1024.4 |
| 20260502195059 | 70 | 184 | 2.0 | 9.0 | 0.00 | 0.00 | 0.00 | 23 | 1024.5 |
| 20260502194559 | 70 | 105 | 2.0 | 9.0 | 0.00 | 0.00 | 0.00 | 23 | 1024.5 |
| 20260502194100 | 69 | 115 | 3.0 | 10.0 | 0.00 | 0.00 | 0.00 | 24 | 1024.6 |
| 20260502193556 | 69 | 179 | 5.0 | 12.0 | 0.00 | 0.00 | 0.00 | 23 | 1024.6 |
| 20260502193055 | 68 | 224 | 4.0 | 12.0 | 0.00 | 0.00 | 0.00 | 24 | 1024.7 |
| 20260502192556 | 68 | 250 | 3.0 | 9.0 | 0.00 | 0.00 | 0.00 | 25 | 1024.8 |
| 20260502192326 | 68 | 143 | 3.0 | 8.0 | 0.00 | 0.00 | 0.00 | 25 | 1024.9 |
| 20260502191555 | 68 | 180 | 3.0 | 10.0 | 0.00 | 0.00 | 0.00 | 26 | 1024.9 |
| 20260502191056 | 67 | 38 | 3.0 | 11.0 | 0.00 | 0.00 | 0.00 | 26 | 1025.1 |
| 20260502190556 | 68 | 296 | 3.0 | 11.0 | 0.00 | 0.00 | 0.00 | 26 | 1025.0 |
| 20260502190056 | 68 | 178 | 3.0 | 7.0 | 0.00 | 0.00 | 0.00 | 26 | 1025.1 |
| 20260502185555 | 67 | 250 | 2.0 | 10.0 | 0.00 | 0.00 | 0.00 | 26 | 1025.1 |
| 20260502185055 | 67 | 219 | 3.0 | 10.0 | 0.00 | 0.00 | 0.00 | 27 | 1025.2 |
| 20260502184556 | 68 | 273 | 4.0 | 9.0 | 0.00 | 0.00 | 0.00 | 27 | 1025.2 |
| 20260502184059 | 67 | 142 | 3.0 | 9.0 | 0.00 | 0.00 | 0.00 | 28 | 1025.4 |
| 20260502184055 | 67 | 189 | 4.0 | 9.0 | 0.00 | 0.00 | 0.00 | 27 | 1025.3 |
| 20260502183055 | 67 | 194 | 2.0 | 6.0 | 0.00 | 0.00 | 0.00 | 28 | 1025.4 |
| 20260502182557 | 67 | 1 | 1.0 | 5.0 | 0.00 | 0.00 | 0.00 | 28 | 1025.5 |
| 20260502182324 | 66 | 61 | 2.0 | 7.0 | 0.00 | 0.00 | 0.00 | 30 | 1025.5 |
| 20260502181553 | 65 | 62 | 4.0 | 9.0 | 0.00 | 0.00 | 0.00 | 30 | 1025.6 |
| 20260502181054 | 65 | 293 | 5.0 | 9.0 | 0.00 | 0.00 | 0.00 | 30 | 1025.8 |
| 20260502180554 | 65 | 266 | 4.0 | 9.0 | 0.00 | 0.00 | 0.00 | 31 | 1025.8 |
| 20260502164039 | 62 | 222 | 6.0 | 12.0 | 0.00 | 0.00 | 0.00 | 43 | 1026.6 |
| 20260502163539 | 61 | 254 | 6.0 | 12.0 | 0.00 | 0.00 | 0.00 | 42 | 1026.7 |
| 20260502163039 | 61 | 243 | 5.0 | 12.0 | 0.00 | 0.00 | 0.00 | 43 | 1026.7 |
| 20260502162540 | 61 | 278 | 6.0 | 12.0 | 0.00 | 0.00 | 0.00 | 44 | 1026.8 |
| 20260502162037 | 60 | 352 | 6.0 | 12.0 | 0.00 | 0.00 | 0.00 | 46 | 1026.8 |
| 20260502161537 | 60 | 262 | 6.0 | 12.0 | 0.00 | 0.00 | 0.00 | 45 | 1026.8 |
| 20260502161041 | 60 | 243 | 6.0 | 11.0 | 0.00 | 0.00 | 0.00 | 47 | 1026.8 |
| 20260502161037 | 60 | 229 | 6.0 | 11.0 | 0.00 | 0.00 | 0.00 | 46 | 1026.9 |
| 20260502152032 | 57 | 290 | 7.0 | 12.0 | 0.00 | 0.00 | 0.00 | 52 | 1026.8 |
| 20260502151534 | 57 | 297 | 7.0 | 12.0 | 0.00 | 0.00 | 0.00 | 54 | 1026.8 |
| 20260502151304 | 56 | 354 | 8.0 | 13.0 | 0.00 | 0.00 | 0.00 | 55 | 1026.8 |
| 20260502150533 | 56 | 304 | 7.0 | 13.0 | 0.00 | 0.00 | 0.00 | 56 | 1026.8 |
| 20260502130502 | 43 | 250 | 6.0 | 10.0 | 0.00 | 0.00 | 0.00 | 81 | 1026.5 |
| 20260502130233 | 43 | 262 | 5.0 | 9.0 | 0.00 | 0.00 | 0.00 | 82 | 1026.4 |
| 20260502123458 | 40 | 262 | 3.0 | 8.0 | 0.00 | 0.00 | 0.00 | 85 | 1025.9 |
| 20260502122957 | 40 | 251 | 4.0 | 8.0 | 0.00 | 0.00 | 0.00 | 85 | 1025.8 |
| 20260502122457 | 40 | 263 | 3.0 | 6.0 | 0.00 | 0.00 | 0.00 | 85 | 1025.8 |
| 20260502121955 | 40 | 252 | 2.0 | 5.0 | 0.00 | 0.00 | 0.00 | 85 | 1025.8 |
| 20260502121455 | 39 | 274 | 1.0 | 5.0 | 0.00 | 0.00 | 0.00 | 85 | 1025.9 |
| 20260502120955 | 39 | 258 | 1.0 | 5.0 | 0.00 | 0.00 | 0.00 | 85 | 1025.7 |
| 20260502120453 | 39 | 266 | 2.0 | 5.0 | 0.00 | 0.00 | 0.00 | 85 | 1025.7 |
| 20260502115453 | 39 | 277 | 3.0 | 5.0 | 0.00 | 0.00 | 0.00 | 85 | 1025.7 |
| 20260502114953 | 38 | 259 | 3.0 | 5.0 | 0.00 | 0.00 | 0.00 | 85 | 1025.6 |
| 20260502114451 | 39 | 240 | 3.0 | 6.0 | 0.00 | 0.00 | 0.00 | 84 | 1025.6 |
| 20260502113951 | 39 | 237 | 3.0 | 6.0 | 0.00 | 0.00 | 0.00 | 84 | 1025.6 |
| 20260502113450 | 39 | 250 | 3.0 | 6.0 | 0.00 | 0.00 | 0.00 | 84 | 1025.7 |
| 20260502112951 | 39 | 248 | 2.0 | 6.0 | 0.00 | 0.00 | 0.00 | 84 | 1025.8 |
| 20260502112451 | 40 | 246 | 2.0 | 5.0 | 0.00 | 0.00 | 0.00 | 84 | 1025.8 |
| 20260502112221 | 40 | 244 | 2.0 | 6.0 | 0.00 | 0.00 | 0.00 | 84 | 1025.8 |
| 20260502111447 | 40 | 205 | 3.0 | 6.0 | 0.00 | 0.00 | 0.00 | 85 | 1025.8 |
| 20260502110947 | 40 | 247 | 3.0 | 6.0 | 0.00 | 0.00 | 0.00 | 85 | 1025.8 |
| 20260502110444 | 40 | 257 | 4.0 | 7.0 | 0.00 | 0.00 | 0.00 | 85 | 1025.7 |
| 20260502105946 | 40 | 246 | 4.0 | 7.0 | 0.00 | 0.00 | 0.00 | 85 | 1025.7 |
| 20260502105443 | 41 | 279 | 4.0 | 6.0 | 0.00 | 0.00 | 0.00 | 85 | 1025.7 |
| 20260502104943 | 41 | 281 | 4.0 | 7.0 | 0.00 | 0.00 | 0.00 | 85 | 1025.6 |
| 20260502104443 | 41 | 271 | 4.0 | 8.0 | 0.00 | 0.00 | 0.00 | 85 | 1025.6 |
| 20260502104212 | 41 | 279 | 3.0 | 8.0 | 0.00 | 0.00 | 0.00 | 85 | 1025.7 |
| 20260502103440 | 41 | 265 | 3.0 | 5.0 | 0.00 | 0.00 | 0.00 | 85 | 1025.7 |
| 20260502102941 | 41 | 276 | 3.0 | 6.0 | 0.00 | 0.00 | 0.00 | 85 | 1025.7 |
| 20260502102440 | 41 | 286 | 3.0 | 6.0 | 0.00 | 0.00 | 0.00 | 85 | 1025.7 |
| 20260502101938 | 40 | 251 | 2.0 | 4.0 | 0.00 | 0.00 | 0.00 | 84 | 1025.6 |
| 20260502101437 | 41 | 253 | 3.0 | 6.0 | 0.00 | 0.00 | 0.00 | 84 | 1025.5 |
| 20260502100936 | 41 | 277 | 4.0 | 7.0 | 0.00 | 0.00 | 0.00 | 84 | 1025.5 |
| 20260502100707 | 41 | 266 | 4.0 | 7.0 | 0.00 | 0.00 | 0.00 | 84 | 1025.5 |
| 20260502091430 | 41 | 262 | 4.0 | 8.0 | 0.00 | 0.00 | 0.00 | 84 | 1025.1 |
| 20260502090928 | 41 | 251 | 4.0 | 6.0 | 0.00 | 0.00 | 0.00 | 83 | 1025.2 |
| 20260502090429 | 41 | 269 | 4.0 | 7.0 | 0.00 | 0.00 | 0.00 | 83 | 1025.3 |
| 20260502071406 | 42 | 273 | 2.0 | 5.0 | 0.00 | 0.00 | 0.00 | 79 | 1025.3 |
| 20260502071136 | 42 | 275 | 2.0 | 4.0 | 0.00 | 0.00 | 0.00 | 79 | 1025.3 |
| 20260502070405 | 42 | 267 | 2.0 | 4.0 | 0.00 | 0.00 | 0.00 | 79 | 1025.4 |
| 20260502070135 | 42 | 274 | 1.0 | 3.0 | 0.00 | 0.00 | 0.00 | 79 | 1025.4 |
| 20260502065404 | 43 | 266 | 1.0 | 2.0 | 0.00 | 0.00 | 0.00 | 79 | 1025.3 |
| 20260502065137 | 43 | 290 | 1.0 | 3.0 | 0.00 | 0.00 | 0.00 | 79 | 1025.3 |
| 20260502064400 | 43 | 274 | 2.0 | 5.0 | 0.00 | 0.00 | 0.00 | 79 | 1025.2 |
| 20260502063901 | 43 | 269 | 2.0 | 5.0 | 0.00 | 0.00 | 0.00 | 79 | 1025.2 |
| 20260502063400 | 43 | 261 | 2.0 | 4.0 | 0.00 | 0.00 | 0.00 | 79 | 1025.2 |
| 20260502062856 | 43 | 263 | 2.0 | 4.0 | 0.00 | 0.00 | 0.00 | 80 | 1025.2 |
| 20260502062357 | 43 | 266 | 1.0 | 4.0 | 0.00 | 0.00 | 0.00 | 80 | 1025.1 |
| 20260502061901 | 42 | 283 | 1.0 | 2.0 | 0.00 | 0.00 | 0.00 | 79 | 1025.1 |
| 20260502061856 | 42 | 274 | 1.0 | 2.0 | 0.00 | 0.00 | 0.00 | 79 | 1025.2 |
| 20260502060854 | 42 | 284 | 1.0 | 2.0 | 0.00 | 0.00 | 0.00 | 79 | 1025.1 |
| 20260502060354 | 42 | 274 | 1.0 | 3.0 | 0.00 | 0.00 | 0.00 | 79 | 1025.1 |
| 20260502055854 | 42 | 288 | 1.0 | 3.0 | 0.00 | 0.00 | 0.00 | 79 | 1025.0 |
| 20260502055625 | 42 | 301 | 1.0 | 2.0 | 0.00 | 0.00 | 0.00 | 79 | 1025.0 |
| 20260502054852 | 42 | 269 | 1.0 | 3.0 | 0.00 | 0.00 | 0.00 | 78 | 1025.0 |
| 20260502054342 | 42 | 278 | 1.0 | 3.0 | 0.00 | 0.00 | 0.00 | 78 | 1025.0 |
| 20260502053842 | 42 | 297 | 1.0 | 3.0 | 0.00 | 0.00 | 0.00 | 78 | 1025.0 |
| 20260502053342 | 42 | 276 | 1.0 | 4.0 | 0.00 | 0.00 | 0.00 | 78 | 1025.0 |
| 20260502052842 | 43 | 269 | 1.0 | 4.0 | 0.00 | 0.00 | 0.00 | 77 | 1024.9 |
| 20260502052343 | 43 | 309 | 2.0 | 5.0 | 0.00 | 0.00 | 0.00 | 77 | 1024.9 |
| 20260502051836 | 43 | 290 | 2.0 | 5.0 | 0.00 | 0.00 | 0.00 | 77 | 1025.0 |
| 20260502051712 | 44 | 274 | 1.0 | 5.0 | 0.00 | 0.00 | 0.00 | 76 | 1024.9 |
| 20260502051605 | 44 | 266 | 2.0 | 5.0 | 0.00 | 0.00 | 0.00 | 77 | 1025.0 |
| 20260502050329 | 45 | 316 | 1.0 | 4.0 | 0.00 | 0.00 | 0.00 | 75 | 1024.9 |
| 20260502045829 | 45 | 295 | 2.0 | 4.0 | 0.00 | 0.00 | 0.00 | 76 | 1024.8 |
| 20260502045329 | 45 | 263 | 2.0 | 4.0 | 0.00 | 0.00 | 0.00 | 76 | 1024.7 |
| 20260502044824 | 45 | 270 | 1.0 | 3.0 | 0.00 | 0.00 | 0.00 | 76 | 1024.7 |
| 20260502044323 | 45 | 272 | 0.0 | 2.0 | 0.00 | 0.00 | 0.00 | 76 | 1024.6 |
| 20260502044056 | 45 | 298 | 0.0 | 0.0 | 0.00 | 0.00 | 0.00 | 74 | 1024.6 |
| 20260502043536 | 46 | 301 | 0.0 | 0.0 | 0.00 | 0.00 | 0.00 | 74 | 1024.6 |
| 20260502043028 | 46 | 294 | 0.0 | 3.0 | 0.00 | 0.00 | 0.00 | 74 | 1024.5 |
| 20260502042256 | 46 | 285 | 1.0 | 3.0 | 0.00 | 0.00 | 0.00 | 75 | 1024.4 |
| 20260502042016 | 46 | 257 | 0.0 | 2.0 | 0.00 | 0.00 | 0.00 | 75 | 1024.5 |
| 20260502041245 | 46 | 256 | 1.0 | 3.0 | 0.00 | 0.00 | 0.00 | 74 | 1024.4 |
| 20260502040713 | 46 | 265 | 1.0 | 3.0 | 0.00 | 0.00 | 0.00 | 75 | 1024.4 |
| 20260502040212 | 46 | 272 | 1.0 | 3.0 | 0.00 | 0.00 | 0.00 | 74 | 1024.4 |
| 20260502035712 | 46 | 290 | 1.0 | 3.0 | 0.00 | 0.00 | 0.00 | 74 | 1024.3 |
| 20260502035213 | 46 | 298 | 0.0 | 2.0 | 0.00 | 0.00 | 0.00 | 74 | 1024.2 |
| 20260502034943 | 46 | 297 | 0.0 | 2.0 | 0.00 | 0.00 | 0.00 | 74 | 1024.1 |
| 20260502034212 | 46 | 297 | 0.0 | 2.0 | 0.00 | 0.00 | 0.00 | 74 | 1024.1 |
| 20260502033658 | 46 | 312 | 0.0 | 1.0 | 0.00 | 0.00 | 0.00 | 73 | 1024.1 |
| 20260502033159 | 46 | 300 | 0.0 | 1.0 | 0.00 | 0.00 | 0.00 | 73 | 1024.2 |
| 20260502032654 | 46 | 302 | 0.0 | 2.0 | 0.00 | 0.00 | 0.00 | 72 | 1024.0 |
| 20260502032157 | 47 | 302 | 1.0 | 2.0 | 0.00 | 0.00 | 0.00 | 72 | 1024.0 |
| 20260502031653 | 47 | 305 | 1.0 | 2.0 | 0.00 | 0.00 | 0.00 | 72 | 1024.0 |
| 20260502031136 | 47 | 303 | 1.0 | 3.0 | 0.00 | 0.00 | 0.00 | 71 | 1024.1 |
| 20260502030638 | 47 | 338 | 2.0 | 3.0 | 0.00 | 0.00 | 0.00 | 71 | 1024.0 |
| 20260502030134 | 47 | 345 | 2.0 | 3.0 | 0.00 | 0.00 | 0.00 | 71 | 1023.9 |
| 20260502025635 | 47 | 344 | 1.0 | 3.0 | 0.00 | 0.00 | 0.00 | 71 | 1023.8 |
| 20260502025134 | 47 | 351 | 2.0 | 3.0 | 0.00 | 0.00 | 0.00 | 71 | 1023.6 |
| 20260502024635 | 47 | 354 | 2.0 | 3.0 | 0.00 | 0.00 | 0.00 | 71 | 1023.6 |
| 20260502024136 | 48 | 359 | 2.0 | 3.0 | 0.00 | 0.00 | 0.00 | 71 | 1023.6 |
| 20260502023620 | 48 | 359 | 2.0 | 3.0 | 0.00 | 0.00 | 0.00 | 71 | 1023.5 |
| 20260502023120 | 48 | 354 | 2.0 | 3.0 | 0.00 | 0.00 | 0.00 | 70 | 1023.5 |
| 20260502022851 | 48 | 353 | 2.0 | 3.0 | 0.00 | 0.00 | 0.00 | 69 | 1023.5 |
| 20260502022118 | 48 | 359 | 2.0 | 3.0 | 0.00 | 0.00 | 0.00 | 69 | 1023.4 |